Regional Weather Roundup
Issued by NWS Newport/Morehead, NC

Current Version | Previous Version | Text Only | Print | Product List | Glossary Off
Versions: 1 2 3 4 5 6 7 8 9 10 11 12 13 14 15 16 17 18 19 20 21 22 23 24 25 26 27 28 29 30 31 32 33 34 35 36 37 38 39 40 41 42 43 44 45 46 47 48 49 50

000
ASUS42 KMHX 270225
RWRMHX
WEATHER ROUNDUP FOR EASTERN NORTH CAROLINA
NATIONAL WEATHER SERVICE NEWPORT/MOREHEAD CITY NC
1000 PM EDT WED APR 26 2017

NOTE: "FAIR" INDICATES FEW OR NO CLOUDS BELOW 12,000 FEET
WITH NO SIGNIFICANT WEATHER AND/OR OBSTRUCTIONS TO VISIBILITY

NCZ015>017-031-032-045>047-102-103-270300-
NORTH COAST

CITY           SKY/WX    TMP DP  RH WIND       PRES   REMARKS
EDENTON        PTCLDY    70  65  84 CALM      29.86R
ELIZABETH CITY CLEAR     67  63  87 S8        29.86R
KITTY HAWK     CLEAR     63  63 100 CALM      29.86R
MANTEO         CLEAR     66  65  96 S3        29.87R

$$

NCZ045>047-081-094-103-104-270300-
CENTRAL COAST

CITY           SKY/WX    TMP DP  RH WIND       PRES   REMARKS
FRISCO         MOCLDY    71  65  81 SW7       29.88R HAZE

$$

NCZ095-097-098-100-101-270300-
SOUTHERN COAST

CITY           SKY/WX    TMP DP  RH WIND       PRES   REMARKS
BEAUFORT       CLEAR     71  68  90 SW10      29.87R
CEDAR ISLAND   NOT AVBL
JACKSONVILLE   CLEAR     69  68  96 S7        29.85S
PINEY ISLAND   CLEAR    N/A N/A N/A S7        29.86S
WILMINGTON     CLEAR     70  64  81 S8        29.87R


$$

NCZ011>013-027>030-043-044-078>080-089-090>093-098-270300-
COASTAL PLAIN

CITY           SKY/WX    TMP DP  RH WIND       PRES   REMARKS
AHOSKIE          N/A     62  62  99 CALM      29.84S FOG
CLINTON        CLEAR     71  66  84 S3        29.85R
ELIZABETHTOWN  CLEAR     70  63  78 S5        29.84R
GOLDSBORO      CLEAR     72  68  86 S7        29.82R
GREENVILLE     PTCLDY    72  64  78 S5        29.87R
HAVELOCK       CLEAR     70  65  84 S9        29.87R
KENANSVILLE    CLEAR     70  64  83 CALM      29.85R
KINSTON        PTCLDY    72  64  78 CALM      29.85R
NEW BERN       CLEAR     69  66  90 S7        29.86R
RICHLANDS      CLEAR     68  65  90 S6        29.86R
ROCKY MOUNT    CLEAR     66  65  96 CALM      29.83R
WASHINGTON     CLEAR     68  64  88 S3        29.85S
WHITEVILLE     CLEAR     70  63  78 S6        29.85R

$$

AMZ130-135-150-152-154-156-158-170-250-252-270-ANZ085-086-088-633-658-670-270300-
MARINE OBSERVATIONS

STATION/POSITION TIME  TEMP    WIND        PRES    WAVE   SWELL
                       AIR SEA DIR/SP/G            HT/PER HT/PER
                 (UTC) (F)     (DEG/KT/KT) (MB)    (FT/S) (FT/S)
CHESAPEAKE LIGHT NOT AVBL
64 E VA BEACH    0150   58 57  190/  8/ 10 1012.1    6/ 9   5/ 9
DUCK             0200   62 60  150/ 11/ 11 1010.7
2 E DUCK         0200      62                N/A     4/11   2/11
OREGON INLET     0200   64 67  130/  4/  4 1011.3
13E OREGON INLT  0148      61                N/A     5/ 9   5/ 9
HATTERAS CG      0200   70 70  210/  6/  8 1011.6
DIAMOND BUOY     0150   75 77  220/ 14/ 17 1011.8    5/ 9   5/ 9
CAPE LOOKOUT     0200   72     210/  8/  9 1011.4
BEAUFORT LAB     0200   71 67  210/  9/ 12 1010.7
30 SE NEW RVR IN 0208   72     220/ 10/ 14 1011.9
30 SE NEW RVR IN 0213      71                N/A     4/ 9   2/11
27 SE WRIGHTSVLE 0208   72 72  200/ 12/ 17 1011.4
5 SE WRIGHTSVLE  0208   71 70  200/ 10/ 16 1011.5
225 S CAPE HAT   0150   75 75  210/ 10/ 12 1014.5    6/ 9   5/ 9
41 SE CHARLESTON 0210   73 73  190/ 12/ 16 1012.0

$$



USA.gov is the U.S. government's official web portal to all federal, state and local government web resources and services.